User: anonymous   Login
Location: Oshawa
(43.9000°N, 78.8670°W)
Time: 23:23:42
(UTC-04:00)
Language:

Thor Agena Rocket - Orbit

View from above orbital plane
View from above orbital plane
View from above satellite
View from above satellite

Ground track
Ground track

The orbit data is extracted from the following two-line orbital elements,

1 00733U 64002A   15215.01073840  .00000082  00000-0  47971-4 0  9994
2 00733 099.0581 356.1162 0034024 008.1125 352.0600 14.32123932684375
Epoch (UTC): 03 August 2015 00:15:27
Eccentricity: 0.0034024
inclination: 99.0581°
perigee height: 760 km
apogee height: 809 km
right ascension of ascending node: 356.1162°
argument of perigee: 8.1125°
revolutions per day: 14.32123932
mean anomaly at epoch: 352.0600°
orbit number at epoch: 68437

The dashed part of the orbit path shows where the satellite is in the earth's shadow,  

DLR